SCP
0 0 0 0 0 0 0 0 0 0 0 0 0 0 0 0 0 0 0 0 0 0 0 0 0 0 0 0 0 0 0 0 0 0 0 0 0 0 0 0 0 0 0 0
0 0 0 0 0 0 0 0 0 0 0 0 0 0 0 0 0 0 0 0 0 0 0 0 0 0 0 0 0 0 0 0 0 0 0 0 0 0 0 0 0 0 0 0
0 0 0 0 0 0 0 0 0 0 0 0 0 0 0 0 0 0 0 0 0 0 0 0 0 0 0 0 0 0 0 0 0 0 0 0 0 0 0 0 0 0 0 0
0 0 0 0 0 0 0 0 0 0 0 0 0 0 0 0 0 0 0 0 0 0 0 0 0 0 0 0 0 0 0 0 0 0 0 0 0 0 0 0 0 0 0 0
0 0 0 0 0 0 0 0 0 0 0 0 0 0 0 0 0 0 0 0 0 0 0 0 0 0 0 0 0 0 0 0 0 0 0 0 0 0 0 0 0 0 0 0
0 0 0 0 0 0 0 0 0 0 0 0 0 0 0 0 0 0 0 0 0 0 0 0 0 0 0 0 0 0 0 0 0 0 0 0 0 0 0 0 0 0 0 0
0 0 0 0 0 0 0 0 0 0 0 0 0 0 0 0 0 0 0 0 0 0 0 0 0 0 0 0 0 0 0 0 0 0 0 0 0 0 0 0 0 0 0 0
0 0 0 0 0 0 0 0 0 0 0 0 0 0 0 0 0 0 0 0 0 0 0 0 0 0 0 0 0 0 0 0 0 0 0 0 0 0 0 0 0 0 0 0
0 0 0 0 0 0 0 0 0 0 0 0 0 0 0 0 0 0 0 0 0 0 0 0 0 0 0 0 0 0 0 0 0 0 0 0 0 0 0 0 0 0 0 0
0 0 0 0 0 0 0 0 0 0 0 0 0 0 0 0 0 0 0 0 0 0 0 0 0 0 0 0 0 0 0 0 0 0 0 0 0 0 0 0 0 0 0 0
0 0 0 0 0 0 0 0 0 0 0 0 0 0 0 0 0 0 0 0 0 0 0 0 0 0 0 0 0 0 0 0 0 0 0 0 0 0 0 0 0 0 0 0
0 0 0 0 0 0 0 0 0 0 0 0 0 0 0 0 0 0 0 0 0 0 0 0 0 0 0 0 0 0 0 0 0 0 0 0 0 0 0 0 0 0 0 0
0 0 0 0 0 0 0 0 0 0 0 0 0 0 0 0 0 0 0 0 0 0 0 0 0 0 0 0 0 0 0 0 0 0 0 0 0 0 0 0 0 0 0 0
0 0 0 0 0 0 0 0 0 0 0 0 0 0 0 0 0 0 0 0 0 0 0 0 0 0 0 0 0 0 0 0 0 0 0 0 0 0 0 0 0 0 0 0
0 0 0 0 0 0 0 0 0 0 0 0 0 0 0 0 0 0 0 0 0 0 0 0 0 0 0 0 0 0 0 0 0 0 0 0 0 0 0 0 0 0 0 0
0 0 0 0 0 0 0 0 0 0 0 0 0 0 0 0 0 0 0 0 0 0 0 0 0 0 0 0 0 0 0 0 0 0 0 0 0 0 0 0 0 0 0 0
0 0 0 0 0 0 0 0 0 0 0 0 0 0 0 0 0 0 0 0 0 0 0 0 0 0 0 0 0 0 0 0 0 0 0 0 0 0 0 0 0 0 0 0
0 0 0 0 0 0 0 0 0 0 0 0 0 0 0 0 0 0 0 0 0 0 0 0 0 0 0 0 0 0 0 0 0 0 0 0 0 0 0 0 0 0 0 0
0 0 0 0 0 0 0 0 0 0 0 0 0 0 0 0 0 0 0 0 0 0 0 0 0 0 0 0 0 0 0 0 0 0 0 0 0 0 0 0 0 0 0 0
0 0 0 0 0 0 0 0 0 0 0 0 0 0 0 0 0 0 0 0 0 0 0 0 0 0 0 0 0 0 0 0 0 0 0 0 0 0 0 0 0 0 0 0
0 0 0 0 0 0 0 0 0 0 0 0 0 0 0 0 0 0 0 0 0 0 0 0 0 0 0 0 0 0 0 0 0 0 0 0 0 0 0 0 0 0 0 0
0 0 0 0 0 0 0 0 0 0 0 0 0 0 0 0 0 0 0 0 0 0 0 0 0 0 0 0 0 0 0 0 0 0 0 0 0 0 0 0 0 0 0 0
0 0 0 0 0 0 0 0 0 0 0 0 0 0 0 0 0 0 0 0 0 0 0 0 0 0 0 0 0 0 0 0 0 0 0 0 0 0 0 0 0 0 0 0
0 0 0 0 0 0 0 0 0 0 0 0 0 0 0 0 0 0 0 0 0 0 0 0 0 0 0 0 0 0 0 0 0 0 0 0 0 0 0 0 0 0 0 0
0 0 0 0 0 0 0 0 0 0 0 0 0 0 0 0 0 0 0 0 0 0 0 0 0 0 0 0 0 0 0 0 0 0 0 0 0 0 0 0 0 0 0 0
0 0 0 0 0 0 0 0 0 0 0 0 0 0 0 0 0 0 0 0 0 0 0 0 0 0 0 0 0 0 0 0 0 0 0 0 0 0 0 0 0 0 0 0
0 0 0 0 0 0 0 0 0 0 0 0 0 0 0 0 0 0 0 0 0 0 0 0 0 0 0 0 0 0 0 0 0 0 0 0 0 0 0 0 0 0 0 0
Wind_Speed_500mb
136 126 127 121 111 98 87 54 6 54 65 16 6 9 16 21 15 19 4 8 9 14 11 9 10 18 6 19 29 16 7 10 7 7 4 3 4 11 11 9 10 3 6 13
142 137 135 138 128 120 106 52 17 65 76 10 7 4 8 21 13 13 15 14 5 6 14 6 8 8 2 12 11 15 14 2 6 13 9 1 8 10 8 9 6 12 10 11
149 147 145 151 140 130 105 43 9 16 40 15 16 13 12 14 11 14 14 12 13 9 5 4 12 8 3 3 5 5 10 6 12 16 8 9 11 13 11 12 7 8 16 8
167 159 155 156 151 145 97 40 16 33 19 25 9 18 24 24 15 8 27 5 12 18 10 6 8 6 5 4 4 5 7 10 5 4 6 4 3 10 20 18 19 14 9 18
170 171 160 166 162 158 98 40 21 22 15 50 31 28 23 36 12 23 15 12 31 14 16 15 13 15 8 11 5 6 3 5 4 6 8 10 6 12 16 21 6 18 5 28
178 181 167 167 153 169 61 51 49 44 37 20 34 35 36 52 37 13 16 31 14 9 3 29 30 22 16 13 18 12 12 13 6 9 8 8 11 28 35 12 9 17 17 23
124 168 164 169 165 164 100 86 63 23 13 28 33 25 46 35 55 23 9 39 22 23 50 44 40 34 31 30 23 8 13 10 5 5 6 5 11 4 6 26 9 19 3 9
118 110 156 185 173 157 111 90 75 38 10 31 21 24 13 26 22 6 20 16 21 61 39 8 7 6 8 7 8 7 3 11 7 9 8 12 7 13 15 16 17 26 28 17
77 84 65 174 179 158 110 81 92 49 16 27 35 30 37 19 17 9 10 25 65 60 9 6 13 13 12 12 5 6 7 9 6 7 11 17 10 8 18 15 12 32 49 37
94 87 91 122 166 171 95 70 78 50 18 16 57 13 38 35 21 10 16 29 22 22 8 6 8 9 3 13 23 15 7 5 14 7 8 17 10 29 24 12 14 42 57 54
80 83 98 107 143 140 149 71 67 66 23 43 44 41 50 43 44 14 38 18 7 5 8 12 9 6 14 8 6 13 16 17 9 6 3 19 45 20 19 11 29 59 54 53
84 81 82 96 110 130 140 68 65 71 28 24 43 53 61 72 75 57 67 16 36 28 9 6 8 6 5 10 8 4 9 14 14 21 16 3 85 10 37 36 55 56 52 47
76 85 90 83 97 103 135 83 85 75 31 16 25 32 44 60 55 66 27 22 42 29 22 17 6 8 9 11 12 5 8 10 7 6 11 20 68 34 41 40 46 46 36 34
94 95 91 93 95 80 121 96 93 84 29 11 6 24 40 52 56 66 44 47 49 40 26 9 6 6 16 8 6 6 8 31 15 10 7 6 34 80 51 51 42 40 37 33
96 89 91 95 92 84 115 94 92 89 52 11 16 30 23 42 53 65 39 45 54 37 15 5 4 11 10 2 4 6 23 15 14 16 35 31 25 78 77 66 57 46 41 38
79 88 93 82 85 129 120 26 66 72 59 23 7 11 21 31 41 47 38 41 40 24 13 9 8 9 7 8 8 11 68 47 46 13 27 44 21 43 81 76 62 50 43 35
79 78 69 82 114 138 91 32 55 82 59 20 8 5 17 50 48 31 38 37 23 6 5 5 8 5 7 5 9 11 55 72 56 36 39 28 39 31 57 75 62 51 43 35
67 80 103 119 112 85 46 22 48 93 39 18 9 4 10 29 13 11 16 14 15 9 10 7 6 10 6 8 13 32 40 53 50 46 44 22 43 32 53 63 62 60 52 44
64 92 114 96 66 34 46 69 76 52 18 14 8 12 9 25 11 14 9 10 4 6 3 5 10 4 12 14 26 44 57 61 59 60 52 33 40 46 54 65 66 60 52 46
82 82 28 15 27 72 80 25 15 8 12 9 6 20 7 22 11 7 11 6 6 6 4 20 5 9 46 34 19 23 50 61 55 68 50 50 49 55 61 66 59 51 42 39
18 18 14 88 75 25 13 9 8 9 7 6 12 12 13 11 7 6 4 6 5 8 6 8 5 9 9 52 65 42 37 52 61 67 65 61 57 60 62 61 55 48 43 40
15 36 32 17 9 12 11 5 6 5 9 6 9 17 17 17 14 8 6 6 2 7 12 5 7 7 10 13 37 59 54 51 62 62 50 42 46 37 49 50 51 44 37 40
56 9 8 11 8 7 9 12 3 7 7 22 24 12 17 13 11 12 5 6 4 15 4 8 9 11 25 15 13 31 45 45 54 53 39 29 36 35 41 44 40 37 41 42
12 8 10 9 6 8 6 6 6 6 25 56 42 16 8 11 6 5 9 2 4 5 5 13 2 31 27 12 7 21 36 37 43 43 36 31 34 36 36 37 33 38 42 36
13 11 9 10 6 8 8 10 6 18 43 40 27 21 13 5 10 5 10 6 9 11 9 2 25 29 13 5 3 15 29 36 39 38 35 32 29 27 26 28 32 37 34 30
15 21 6 7 4 7 13 17 16 33 24 21 16 8 7 6 10 8 9 16 13 5 3 20 24 11 7 11 19 26 29 31 31 28 24 21 19 21 23 26 30 31 30 30
12 8 19 10 6 7 11 13 13 14 9 5 5 9 3 6 7 4 2 5 3 12 14 11 10 18 22 28 30 29 25 21 18 16 14 14 16 19 23 26 28 31 32 30
Wind_Direction_500mb
219 214 216 211 204 199 190 173 144 170 173 157 207 163 187 173 168 186 139 109 119 167 153 150 207 200 239 173 153 160 192 124 153 196 256 211 218 183 150 131 234 193 143 273
218 215 212 212 207 197 180 166 128 169 179 163 226 294 197 179 144 169 162 176 159 143 168 177 192 178 56 181 173 158 187 292 64 352 352 12 208 188 118 113 89 199 142 260
218 215 214 215 211 200 181 158 129 165 204 214 151 153 205 180 173 153 152 140 119 120 103 7 172 139 55 182 197 109 127 89 158 188 184 137 189 182 164 134 130 182 228 221
218 216 215 213 212 205 178 173 184 170 189 211 190 177 167 178 161 225 167 175 215 163 135 125 152 101 87 37 129 99 127 186 117 297 323 17 236 180 174 196 197 186 250 213
217 212 210 212 212 208 185 169 151 151 150 157 177 193 192 183 174 160 212 184 194 206 162 168 172 128 187 194 113 134 30 137 117 347 358 43 302 247 208 220 200 273 275 277
210 208 209 209 211 196 191 186 184 159 155 152 178 206 189 199 162 192 194 178 121 147 103 117 132 133 128 153 153 154 144 139 117 255 355 350 312 233 210 185 193 186 215 241
201 205 209 210 210 216 201 196 174 150 167 178 203 185 199 189 196 170 120 164 147 139 119 94 83 88 86 83 49 98 134 106 58 162 15 300 238 151 214 217 205 206 219 212
208 201 194 206 207 211 199 196 190 186 168 188 183 205 182 168 147 121 136 166 187 154 123 101 97 352 20 346 21 24 89 133 116 155 202 304 251 194 170 168 253 201 208 173
207 206 196 195 206 208 196 200 198 190 129 204 171 174 184 171 167 100 114 144 162 150 120 127 172 187 178 212 31 26 79 54 118 143 176 214 236 168 157 117 289 194 185 180
204 206 200 201 204 203 189 191 194 177 145 164 166 162 179 159 142 122 131 140 177 167 132 136 173 216 209 171 167 166 124 68 184 171 222 286 199 161 145 106 237 172 186 191
187 193 198 200 206 211 199 201 196 191 182 164 189 182 157 150 159 148 153 112 186 117 151 170 196 155 204 142 154 177 158 150 174 95 131 266 157 137 170 191 153 166 179 184
194 191 192 194 205 205 209 203 204 199 189 174 189 192 190 196 183 164 170 173 155 161 152 198 131 141 170 143 202 145 206 185 178 188 205 115 174 177 189 169 166 177 178 186
204 199 194 196 195 204 210 202 195 184 162 124 162 186 193 199 194 193 146 173 183 182 174 151 156 171 149 168 220 126 250 171 164 122 204 201 199 207 187 186 187 180 187 194
207 201 199 199 204 206 203 197 191 184 162 115 153 172 177 189 186 188 196 188 175 173 166 119 141 146 198 187 146 176 178 147 163 268 236 192 221 214 206 196 191 190 196 206
203 204 205 202 206 204 193 192 181 187 178 121 131 148 162 179 188 186 174 168 172 173 152 97 179 137 132 34 67 226 193 166 175 214 194 187 205 211 205 203 203 205 207 202
202 201 202 200 196 182 174 141 179 186 181 114 115 103 141 151 179 178 179 183 184 189 175 155 161 164 164 152 205 229 196 199 201 199 188 194 188 198 208 209 209 211 212 211
202 201 190 184 184 182 172 177 188 178 169 106 104 88 128 149 151 140 157 176 185 179 102 84 120 120 183 106 224 210 204 207 203 208 178 180 188 193 199 211 210 211 209 215
171 175 174 173 163 161 161 124 169 179 158 103 108 93 125 149 123 112 129 124 129 125 144 138 105 112 61 257 230 195 201 203 204 197 194 213 200 189 191 197 201 203 209 219
156 160 156 143 146 132 132 145 157 165 140 115 115 136 159 164 117 115 109 127 96 127 119 156 153 149 224 225 195 194 192 196 203 199 203 205 200 195 193 195 198 206 212 220
137 135 143 95 129 138 128 114 137 107 70 93 96 123 130 155 136 112 116 107 137 156 158 140 185 251 245 235 227 228 214 212 208 185 190 198 200 200 200 204 208 210 215 220
79 41 52 125 131 113 86 101 104 133 78 97 115 115 125 134 115 120 94 144 166 160 185 180 210 269 250 236 234 229 219 220 217 219 225 224 224 211 205 204 205 205 214 219
73 121 119 104 79 85 94 79 100 90 152 137 111 130 115 118 124 110 116 104 174 165 141 161 253 250 297 279 230 220 217 216 213 216 220 221 221 221 214 207 202 210 217 214
112 59 45 23 5 94 161 146 111 115 179 152 148 126 124 114 101 85 114 122 125 137 101 220 234 351 348 322 273 221 210 209 204 202 199 198 200 196 196 199 203 214 215 219
68 34 30 23 7 22 29 113 139 159 150 130 124 96 103 119 82 116 97 69 158 189 215 231 358 342 340 323 266 205 197 195 193 193 190 189 187 186 190 195 210 220 221 223
84 60 37 35 316 332 328 67 109 121 131 121 104 78 91 82 102 66 119 121 201 218 233 335 336 340 345 360 163 176 176 172 173 171 170 168 173 181 198 206 213 215 221 227
57 47 59 24 13 313 14 37 87 123 109 96 81 107 95 85 114 135 188 148 210 240 289 320 332 4 45 103 121 137 149 155 159 161 165 178 189 204 213 216 218 222 226 231
56 40 24 13 44 21 15 42 110 101 64 75 104 79 135 106 63 64 26 194 284 321 344 9 69 96 103 112 120 129 137 148 157 170 186 206 219 222 221 218 222 228 233 235
Wind_Speed_850mb
136 126 127 121 111 98 87 54 6 54 65 16 6 9 16 21 15 19 4 8 9 14 11 9 10 18 6 19 29 16 7 10 7 7 4 3 4 11 11 9 10 3 6 13
142 137 135 138 128 120 106 52 17 65 76 10 7 4 8 21 13 13 15 14 5 6 14 6 8 8 2 12 11 15 14 2 6 13 9 1 8 10 8 9 6 12 10 11
149 147 145 151 140 130 105 43 9 16 40 15 16 13 12 14 11 14 14 12 13 9 5 4 12 8 3 3 5 5 10 6 12 16 8 9 11 13 11 12 7 8 16 8
167 159 155 156 151 145 97 40 16 33 19 25 9 18 24 24 15 8 27 5 12 18 10 6 8 6 5 4 4 5 7 10 5 4 6 4 3 10 20 18 19 14 9 18
170 171 160 166 162 158 98 40 21 22 15 50 31 28 23 36 12 23 15 12 31 14 16 15 13 15 8 11 5 6 3 5 4 6 8 10 6 12 16 21 6 18 5 28
178 181 167 167 153 169 61 51 49 44 37 20 34 35 36 52 37 13 16 31 14 9 3 29 30 22 16 13 18 12 12 13 6 9 8 8 11 28 35 12 9 17 17 23
124 168 164 169 165 164 100 86 63 23 13 28 33 25 46 35 55 23 9 39 22 23 50 44 40 34 31 30 23 8 13 10 5 5 6 5 11 4 6 26 9 19 3 9
118 110 156 185 173 157 111 90 75 38 10 31 21 24 13 26 22 6 20 16 21 61 39 8 7 6 8 7 8 7 3 11 7 9 8 12 7 13 15 16 17 26 28 17
77 84 65 174 179 158 110 81 92 49 16 27 35 30 37 19 17 9 10 25 65 60 9 6 13 13 12 12 5 6 7 9 6 7 11 17 10 8 18 15 12 32 49 37
94 87 91 122 166 171 95 70 78 50 18 16 57 13 38 35 21 10 16 29 22 22 8 6 8 9 3 13 23 15 7 5 14 7 8 17 10 29 24 12 14 42 57 54
80 83 98 107 143 140 149 71 67 66 23 43 44 41 50 43 44 14 38 18 7 5 8 12 9 6 14 8 6 13 16 17 9 6 3 19 45 20 19 11 29 59 54 53
84 81 82 96 110 130 140 68 65 71 28 24 43 53 61 72 75 57 67 16 36 28 9 6 8 6 5 10 8 4 9 14 14 21 16 3 85 10 37 36 55 56 52 47
76 85 90 83 97 103 135 83 85 75 31 16 25 32 44 60 55 66 27 22 42 29 22 17 6 8 9 11 12 5 8 10 7 6 11 20 68 34 41 40 46 46 36 34
94 95 91 93 95 80 121 96 93 84 29 11 6 24 40 52 56 66 44 47 49 40 26 9 6 6 16 8 6 6 8 31 15 10 7 6 34 80 51 51 42 40 37 33
96 89 91 95 92 84 115 94 92 89 52 11 16 30 23 42 53 65 39 45 54 37 15 5 4 11 10 2 4 6 23 15 14 16 35 31 25 78 77 66 57 46 41 38
79 88 93 82 85 129 120 26 66 72 59 23 7 11 21 31 41 47 38 41 40 24 13 9 8 9 7 8 8 11 68 47 46 13 27 44 21 43 81 76 62 50 43 35
79 78 69 82 114 138 91 32 55 82 59 20 8 5 17 50 48 31 38 37 23 6 5 5 8 5 7 5 9 11 55 72 56 36 39 28 39 31 57 75 62 51 43 35
67 80 103 119 112 85 46 22 48 93 39 18 9 4 10 29 13 11 16 14 15 9 10 7 6 10 6 8 13 32 40 53 50 46 44 22 43 32 53 63 62 60 52 44
64 92 114 96 66 34 46 69 76 52 18 14 8 12 9 25 11 14 9 10 4 6 3 5 10 4 12 14 26 44 57 61 59 60 52 33 40 46 54 65 66 60 52 46
82 82 28 15 27 72 80 25 15 8 12 9 6 20 7 22 11 7 11 6 6 6 4 20 5 9 46 34 19 23 50 61 55 68 50 50 49 55 61 66 59 51 42 39
18 18 14 88 75 25 13 9 8 9 7 6 12 12 13 11 7 6 4 6 5 8 6 8 5 9 9 52 65 42 37 52 61 67 65 61 57 60 62 61 55 48 43 40
15 36 32 17 9 12 11 5 6 5 9 6 9 17 17 17 14 8 6 6 2 7 12 5 7 7 10 13 37 59 54 51 62 62 50 42 46 37 49 50 51 44 37 40
56 9 8 11 8 7 9 12 3 7 7 22 24 12 17 13 11 12 5 6 4 15 4 8 9 11 25 15 13 31 45 45 54 53 39 29 36 35 41 44 40 37 41 42
12 8 10 9 6 8 6 6 6 6 25 56 42 16 8 11 6 5 9 2 4 5 5 13 2 31 27 12 7 21 36 37 43 43 36 31 34 36 36 37 33 38 42 36
13 11 9 10 6 8 8 10 6 18 43 40 27 21 13 5 10 5 10 6 9 11 9 2 25 29 13 5 3 15 29 36 39 38 35 32 29 27 26 28 32 37 34 30
15 21 6 7 4 7 13 17 16 33 24 21 16 8 7 6 10 8 9 16 13 5 3 20 24 11 7 11 19 26 29 31 31 28 24 21 19 21 23 26 30 31 30 30
12 8 19 10 6 7 11 13 13 14 9 5 5 9 3 6 7 4 2 5 3 12 14 11 10 18 22 28 30 29 25 21 18 16 14 14 16 19 23 26 28 31 32 30
Wind_Direction_850mb
219 214 216 211 204 199 190 173 144 170 173 157 207 163 187 173 168 186 139 109 119 167 153 150 207 200 239 173 153 160 192 124 153 196 256 211 218 183 150 131 234 193 143 273
218 215 212 212 207 197 180 166 128 169 179 163 226 294 197 179 144 169 162 176 159 143 168 177 192 178 56 181 173 158 187 292 64 352 352 12 208 188 118 113 89 199 142 260
218 215 214 215 211 200 181 158 129 165 204 214 151 153 205 180 173 153 152 140 119 120 103 7 172 139 55 182 197 109 127 89 158 188 184 137 189 182 164 134 130 182 228 221
218 216 215 213 212 205 178 173 184 170 189 211 190 177 167 178 161 225 167 175 215 163 135 125 152 101 87 37 129 99 127 186 117 297 323 17 236 180 174 196 197 186 250 213
217 212 210 212 212 208 185 169 151 151 150 157 177 193 192 183 174 160 212 184 194 206 162 168 172 128 187 194 113 134 30 137 117 347 358 43 302 247 208 220 200 273 275 277
210 208 209 209 211 196 191 186 184 159 155 152 178 206 189 199 162 192 194 178 121 147 103 117 132 133 128 153 153 154 144 139 117 255 355 350 312 233 210 185 193 186 215 241
201 205 209 210 210 216 201 196 174 150 167 178 203 185 199 189 196 170 120 164 147 139 119 94 83 88 86 83 49 98 134 106 58 162 15 300 238 151 214 217 205 206 219 212
208 201 194 206 207 211 199 196 190 186 168 188 183 205 182 168 147 121 136 166 187 154 123 101 97 352 20 346 21 24 89 133 116 155 202 304 251 194 170 168 253 201 208 173
207 206 196 195 206 208 196 200 198 190 129 204 171 174 184 171 167 100 114 144 162 150 120 127 172 187 178 212 31 26 79 54 118 143 176 214 236 168 157 117 289 194 185 180
204 206 200 201 204 203 189 191 194 177 145 164 166 162 179 159 142 122 131 140 177 167 132 136 173 216 209 171 167 166 124 68 184 171 222 286 199 161 145 106 237 172 186 191
187 193 198 200 206 211 199 201 196 191 182 164 189 182 157 150 159 148 153 112 186 117 151 170 196 155 204 142 154 177 158 150 174 95 131 266 157 137 170 191 153 166 179 184
194 191 192 194 205 205 209 203 204 199 189 174 189 192 190 196 183 164 170 173 155 161 152 198 131 141 170 143 202 145 206 185 178 188 205 115 174 177 189 169 166 177 178 186
204 199 194 196 195 204 210 202 195 184 162 124 162 186 193 199 194 193 146 173 183 182 174 151 156 171 149 168 220 126 250 171 164 122 204 201 199 207 187 186 187 180 187 194
207 201 199 199 204 206 203 197 191 184 162 115 153 172 177 189 186 188 196 188 175 173 166 119 141 146 198 187 146 176 178 147 163 268 236 192 221 214 206 196 191 190 196 206
203 204 205 202 206 204 193 192 181 187 178 121 131 148 162 179 188 186 174 168 172 173 152 97 179 137 132 34 67 226 193 166 175 214 194 187 205 211 205 203 203 205 207 202
202 201 202 200 196 182 174 141 179 186 181 114 115 103 141 151 179 178 179 183 184 189 175 155 161 164 164 152 205 229 196 199 201 199 188 194 188 198 208 209 209 211 212 211
202 201 190 184 184 182 172 177 188 178 169 106 104 88 128 149 151 140 157 176 185 179 102 84 120 120 183 106 224 210 204 207 203 208 178 180 188 193 199 211 210 211 209 215
171 175 174 173 163 161 161 124 169 179 158 103 108 93 125 149 123 112 129 124 129 125 144 138 105 112 61 257 230 195 201 203 204 197 194 213 200 189 191 197 201 203 209 219
156 160 156 143 146 132 132 145 157 165 140 115 115 136 159 164 117 115 109 127 96 127 119 156 153 149 224 225 195 194 192 196 203 199 203 205 200 195 193 195 198 206 212 220
137 135 143 95 129 138 128 114 137 107 70 93 96 123 130 155 136 112 116 107 137 156 158 140 185 251 245 235 227 228 214 212 208 185 190 198 200 200 200 204 208 210 215 220
79 41 52 125 131 113 86 101 104 133 78 97 115 115 125 134 115 120 94 144 166 160 185 180 210 269 250 236 234 229 219 220 217 219 225 224 224 211 205 204 205 205 214 219
73 121 119 104 79 85 94 79 100 90 152 137 111 130 115 118 124 110 116 104 174 165 141 161 253 250 297 279 230 220 217 216 213 216 220 221 221 221 214 207 202 210 217 214
112 59 45 23 5 94 161 146 111 115 179 152 148 126 124 114 101 85 114 122 125 137 101 220 234 351 348 322 273 221 210 209 204 202 199 198 200 196 196 199 203 214 215 219
68 34 30 23 7 22 29 113 139 159 150 130 124 96 103 119 82 116 97 69 158 189 215 231 358 342 340 323 266 205 197 195 193 193 190 189 187 186 190 195 210 220 221 223
84 60 37 35 316 332 328 67 109 121 131 121 104 78 91 82 102 66 119 121 201 218 233 335 336 340 345 360 163 176 176 172 173 171 170 168 173 181 198 206 213 215 221 227
57 47 59 24 13 313 14 37 87 123 109 96 81 107 95 85 114 135 188 148 210 240 289 320 332 4 45 103 121 137 149 155 159 161 165 178 189 204 213 216 218 222 226 231
56 40 24 13 44 21 15 42 110 101 64 75 104 79 135 106 63 64 26 194 284 321 344 9 69 96 103 112 120 129 137 148 157 170 186 206 219 222 221 218 222 228 233 235